Total_Precipitation_Accumulation
0.00 0.01 0.01 0.02 0.01 0.03 0.06 0.08 0.16 0.21 0.14 0.15 0.29 0.47 0.58 0.65 0.85 0.94 0.89 0.82 0.78 0.94 1.11 1.29 1.52 1.74 2.05 2.37 2.80 2.97 2.90 2.40 1.88 1.66 1.46 1.35 1.23 1.19 1.24 1.25 1.19 1.15 1.05 1.04
0.02 0.04 0.03 0.02 0.03 0.05 0.09 0.11 0.19 0.19 0.12 0.14 0.30 0.55 0.69 0.74 0.70 0.77 0.72 0.74 0.74 1.00 1.24 1.56 1.95 2.03 1.92 2.15 2.62 2.64 2.15 1.65 1.33 1.17 1.05 0.93 0.90 0.89 0.87 0.84 0.82 0.81 0.82 0.87
0.04 0.05 0.03 0.03 0.05 0.10 0.12 0.13 0.16 0.15 0.13 0.19 0.35 0.65 0.87 0.80 0.57 0.53 0.56 0.58 0.67 0.95 1.27 1.54 1.85 1.86 1.68 1.87 1.88 1.55 1.23 0.95 0.74 0.64 0.60 0.63 0.60 0.59 0.53 0.48 0.48 0.53 0.58 0.59
0.03 0.03 0.03 0.03 0.06 0.06 0.08 0.07 0.07 0.06 0.12 0.26 0.38 0.83 1.10 0.91 0.65 0.54 0.52 0.58 0.62 0.64 0.76 0.98 1.14 1.21 1.26 1.25 1.08 0.88 0.76 0.63 0.56 0.56 0.51 0.56 0.50 0.45 0.41 0.35 0.36 0.40 0.42 0.42
0.03 0.03 0.03 0.04 0.04 0.04 0.05 0.04 0.04 0.08 0.11 0.23 0.39 0.66 0.97 0.98 0.86 0.71 0.59 0.58 0.51 0.42 0.42 0.51 0.56 0.60 0.67 0.68 0.62 0.51 0.58 0.64 0.59 0.56 0.49 0.45 0.38 0.33 0.30 0.32 0.36 0.41 0.42 0.41
0.05 0.05 0.04 0.03 0.03 0.04 0.04 0.05 0.12 0.23 0.31 0.51 0.46 0.52 0.81 0.80 0.77 0.74 0.59 0.45 0.34 0.29 0.32 0.35 0.34 0.30 0.29 0.30 0.30 0.30 0.39 0.49 0.46 0.44 0.42 0.40 0.37 0.35 0.31 0.30 0.31 0.33 0.36 0.38
0.14 0.12 0.09 0.05 0.05 0.05 0.05 0.08 0.29 0.58 0.76 0.79 0.45 0.48 0.70 0.62 0.67 0.71 0.50 0.29 0.22 0.23 0.22 0.25 0.25 0.21 0.18 0.17 0.16 0.15 0.19 0.29 0.30 0.31 0.35 0.34 0.34 0.33 0.30 0.26 0.25 0.26 0.26 0.31
0.15 0.18 0.10 0.04 0.05 0.05 0.06 0.06 0.14 0.21 0.30 0.40 0.43 0.82 0.79 0.47 0.49 0.41 0.22 0.12 0.12 0.19 0.17 0.14 0.14 0.13 0.11 0.09 0.08 0.07 0.07 0.09 0.11 0.14 0.18 0.20 0.23 0.24 0.25 0.32 0.30 0.25 0.24 0.27
0.07 0.06 0.04 0.04 0.05 0.06 0.05 0.04 0.04 0.06 0.11 0.27 0.51 0.77 0.56 0.32 0.32 0.20 0.11 0.06 0.05 0.07 0.08 0.06 0.06 0.06 0.05 0.04 0.04 0.04 0.04 0.05 0.06 0.06 0.08 0.10 0.14 0.18 0.24 0.30 0.29 0.25 0.24 0.23
0.03 0.02 0.03 0.04 0.05 0.06 0.04 0.04 0.03 0.04 0.07 0.17 0.36 0.62 0.58 0.38 0.31 0.17 0.09 0.04 0.03 0.03 0.03 0.03 0.03 0.03 0.03 0.02 0.02 0.03 0.03 0.04 0.03 0.03 0.04 0.06 0.11 0.19 0.26 0.30 0.26 0.23 0.21 0.20
0.03 0.02 0.03 0.04 0.06 0.06 0.06 0.06 0.06 0.06 0.07 0.10 0.22 0.36 0.28 0.26 0.20 0.12 0.06 0.04 0.02 0.01 0.01 0.01 0.01 0.01 0.01 0.01 0.02 0.02 0.02 0.03 0.02 0.02 0.03 0.07 0.17 0.21 0.27 0.42 0.40 0.25 0.19 0.18
0.03 0.02 0.03 0.06 0.09 0.08 0.07 0.07 0.06 0.07 0.07 0.07 0.10 0.18 0.13 0.14 0.10 0.07 0.05 0.02 0.01 0.01 0.01 0.00 0.00 0.01 0.01 0.01 0.01 0.01 0.02 0.02 0.02 0.02 0.02 0.05 0.15 0.20 0.23 0.31 0.34 0.26 0.21 0.18
0.02 0.02 0.04 0.15 0.23 0.15 0.08 0.06 0.06 0.07 0.05 0.05 0.15 0.22 0.11 0.07 0.05 0.04 0.02 0.01 0.00 0.00 0.00 0.00 0.00 0.01 0.01 0.01 0.01 0.01 0.01 0.01 0.01 0.02 0.03 0.05 0.07 0.08 0.10 0.12 0.16 0.20 0.23 0.24
0.03 0.02 0.02 0.11 0.16 0.14 0.08 0.07 0.09 0.07 0.07 0.09 0.14 0.20 0.09 0.04 0.02 0.01 0.01 0.00 0.00 0.00 0.00 0.00 0.00 0.00 0.01 0.01 0.01 0.01 0.01 0.01 0.01 0.02 0.03 0.04 0.05 0.04 0.05 0.08 0.12 0.18 0.21 0.23
0.03 0.01 0.01 0.02 0.05 0.08 0.08 0.09 0.09 0.06 0.07 0.11 0.11 0.11 0.06 0.03 0.02 0.01 0.01 0.01 0.01 0.01 0.01 0.01 0.01 0.01 0.01 0.01 0.01 0.01 0.02 0.02 0.03 0.04 0.09 0.09 0.07 0.06 0.06 0.08 0.10 0.13 0.14 0.14
0.04 0.02 0.01 0.01 0.04 0.05 0.07 0.11 0.09 0.05 0.03 0.04 0.04 0.04 0.03 0.03 0.03 0.03 0.03 0.03 0.03 0.02 0.02 0.02 0.02 0.02 0.02 0.02 0.02 0.02 0.03 0.03 0.05 0.08 0.14 0.17 0.14 0.08 0.06 0.06 0.08 0.10 0.11 0.14
0.06 0.05 0.03 0.02 0.04 0.05 0.13 0.12 0.08 0.04 0.04 0.05 0.06 0.06 0.06 0.06 0.07 0.08 0.08 0.07 0.06 0.04 0.03 0.03 0.02 0.02 0.01 0.01 0.02 0.04 0.03 0.03 0.10 0.13 0.12 0.18 0.20 0.10 0.06 0.07 0.09 0.13 0.14 0.18
0.06 0.06 0.05 0.04 0.04 0.11 0.11 0.06 0.06 0.06 0.07 0.07 0.07 0.08 0.10 0.12 0.11 0.11 0.12 0.09 0.05 0.02 0.02 0.01 0.01 0.01 0.01 0.01 0.02 0.03 0.05 0.05 0.13 0.16 0.13 0.19 0.22 0.13 0.13 0.15 0.17 0.20 0.24 0.28
0.07 0.06 0.06 0.04 0.05 0.09 0.09 0.09 0.09 0.12 0.12 0.11 0.12 0.14 0.14 0.12 0.09 0.06 0.05 0.03 0.02 0.01 0.01 0.01 0.01 0.01 0.01 0.02 0.02 0.03 0.08 0.12 0.13 0.15 0.15 0.21 0.28 0.24 0.24 0.26 0.29 0.34 0.38 0.39
0.08 0.08 0.09 0.08 0.12 0.14 0.13 0.14 0.16 0.15 0.22 0.19 0.16 0.13 0.10 0.07 0.07 0.06 0.06 0.04 0.03 0.03 0.02 0.02 0.02 0.01 0.02 0.03 0.04 0.06 0.09 0.13 0.16 0.16 0.18 0.24 0.37 0.43 0.40 0.40 0.43 0.45 0.52 0.55
0.11 0.12 0.13 0.15 0.18 0.18 0.16 0.17 0.18 0.28 0.36 0.28 0.25 0.20 0.19 0.17 0.15 0.12 0.09 0.08 0.06 0.04 0.03 0.03 0.03 0.03 0.04 0.06 0.09 0.13 0.15 0.17 0.19 0.22 0.25 0.31 0.45 0.59 0.58 0.57 0.57 0.59 0.62 0.69
0.15 0.16 0.18 0.25 0.36 0.36 0.22 0.20 0.31 0.42 0.37 0.33 0.29 0.23 0.21 0.19 0.15 0.12 0.10 0.09 0.08 0.07 0.06 0.07 0.08 0.09 0.10 0.13 0.20 0.25 0.26 0.26 0.29 0.31 0.34 0.40 0.53 0.57 0.61 0.69 0.74 0.82 0.86 0.87
0.12 0.14 0.19 0.28 0.39 0.34 0.30 0.29 0.30 0.33 0.34 0.29 0.23 0.20 0.19 0.19 0.17 0.16 0.15 0.13 0.11 0.09 0.09 0.10 0.12 0.15 0.18 0.22 0.32 0.40 0.41 0.44 0.44 0.42 0.43 0.47 0.55 0.68 0.82 0.87 0.84 0.90 0.99 1.03
0.08 0.09 0.13 0.23 0.28 0.31 0.27 0.22 0.20 0.15 0.13 0.12 0.11 0.11 0.11 0.13 0.14 0.13 0.13 0.12 0.12 0.12 0.11 0.12 0.14 0.19 0.24 0.30 0.42 0.51 0.55 0.56 0.54 0.49 0.46 0.50 0.60 0.69 0.83 0.98 1.00 1.06 1.09 1.10
0.05 0.07 0.13 0.22 0.24 0.27 0.27 0.21 0.17 0.11 0.07 0.05 0.05 0.05 0.06 0.09 0.10 0.11 0.13 0.12 0.11 0.10 0.10 0.13 0.17 0.24 0.27 0.36 0.50 0.58 0.62 0.65 0.62 0.56 0.50 0.51 0.58 0.68 0.77 0.90 1.01 1.04 1.06 1.01
0.05 0.07 0.15 0.19 0.18 0.17 0.16 0.11 0.08 0.07 0.06 0.06 0.04 0.04 0.04 0.05 0.06 0.07 0.08 0.08 0.07 0.08 0.11 0.16 0.21 0.28 0.31 0.37 0.48 0.58 0.71 0.83 0.86 0.76 0.66 0.60 0.59 0.66 0.73 0.83 0.86 0.77 0.76 0.74